Date,TemperatureHighF,TemperatureAvgF,TemperatureLowF,DewpointHighF,DewpointAvgF,DewpointLowF,HumidityHigh,HumidityAvg,HumidityLow,PressureMaxIn,PressureMinIn,WindSpeedMaxMPH,WindSpeedAvgMPH,GustSpeedMaxMPH,PrecipitationSumIn
2013-2-4,61,39,37,48,5,-100,79,48,53,31.70,17.89,6,-256,6,0.00
2013-2-5,68,46,29,51,34,25,91,66,35,27.44,19.39,5,0,5,0.00
2013-2-6,66,49,33,44,37,29,88,65,44,27.51,27.44,7,0,7,0.00
2013-2-7,57,51,44,53,48,39,92,87,77,29.01,20.03,10,0,10,0.06
2013-2-8,52,42,33,39,33,29,86,71,47,29.03,19.24,12,0,12,0.00
2013-2-9,50,41,34,42,34,29,92,76,48,28.42,17.82,13,0,13,0.13
2013-2-10,62,52,40,53,40,28,94,67,36,32.08,17.82,14,1,14,0.36
2013-2-11,55,41,29,31,26,23,83,58,34,26.32,22.81,5,0,5,0.00
2013-2-12,46,36,27,33,28,23,89,72,53,22.81,21.07,7,0,7,0.00
2013-2-14,59,52,44,38,35,31,60,51,43,0.00,40.00,0,0,0,0.00
2013-2-15,44,37,32,30,27,24,78,68,56,17.62,17.62,3,0,3,0.00
2013-2-18,59,47,34,52,37,26,82,68,60,25.86,19.12,12,1,12,0.06
2013-2-19,50,36,22,28,22,16,81,58,38,30.12,23.25,7,0,7,0.00
2013-2-20,35,32,26,30,23,15,84,71,51,22.57,17.22,9,0,9,0.09
2013-2-21,36,33,30,34,30,25,93,89,80,26.05,17.22,14,1,14,0.03
2013-2-22,40,32,22,32,24,18,92,74,57,26.05,17.31,6,0,6,0.02
2013-2-23,46,32,18,27,22,15,89,68,44,26.14,17.83,4,0,4,0.00
2013-2-24,60,43,23,39,30,19,90,63,42,24.55,20.39,7,0,7,0.00
2013-2-25,43,39,36,37,33,29,90,79,64,22.12,17.04,13,1,13,0.31
2013-2-26,37,34,33,34,32,31,93,91,89,20.48,20.33,10,0,10,0.12
2013-2-27,42,35,32,35,30,27,92,84,69,20.48,17.83,6,0,6,0.04
2013-2-28,39,34,28,30,28,24,90,79,67,21.66,17.83,7,0,7,0.00